Weather in Prokudskoye

Russia / Novosibirsk Oblast     55°00′35″N   82°27′33″E
temp.,
°C
wind,
m/s
gust,
m/s
humid.,
%
clouds,
%
prec.,
mm/h
press.,
hPa
HPBL,
m
27 november, sat
sat2701:00−13ssw6138399 0.0 1034406
04:00−12ssw71486100 0.0 1034514
07:00−12ssw71489100 0.0 1034459
10:00−11ssw71489100 0.0 1034531
13:00−9ssw81590100 0.1 1033587
16:00−8ssw91787100 0.1 1031654
19:00−6sw91789100 0.2 1029835
22:00−6sw101887100 0.1 1028762
28 november, sun
sun2801:00−6sw101888100 0.2 1027791
04:00−6sw91693100 0.7 1027768
07:00−6wsw81591100 1.1 1028593
10:00−6wsw71491100 0.1 1030517
13:00−6wsw71390100 0.1 1031545
16:00−6wsw61291100 0.0 1032496
19:00−6sw61192100 0.1 1034488
22:00−9sw499476 0.0 1036215
29 november, mon
mon2901:00−11sw499353 0.1 1036157
04:00−12ssw389480 0.0 1036123
07:00−11ssw3892100 0.0 1036148
10:00−12ssw4890100 0.0 1035118
13:00−10ssw4888100 0.0 1034170
16:00−9ssw4985100 0.0 1033183
19:00−9ssw41083100 0.0 1032158
22:00−9ssw51179100 0.0 1031182
30 november, tue
tue3001:00−9ssw51181100 0.0 1030196
04:00−9ssw51183100 0.0 1029209
07:00−9ssw51182100 0.0 1027201
10:00−8ssw51080100 0.0 1028219
13:00−8sw4118098 0.0 1028236
16:00−7sw41080100 0.0 1027224
19:00−10ssw410835 0.0 1028147
22:00−13sw488320 0.0 1029101
1 december, wed
wed101:00−16sw22879 0.0 103018
04:00−16ssw338563 0.0 103135
07:00−16ssw3587100 0.0 103039
10:00−15ssw369510 0.0 103081
13:00−9ssw38905 0.0 1029170
16:00−9s39885 0.0 1027127
19:00−9ssw411855 0.0 1026163
22:00−9ssw411865 0.0 1025158